Content
SEND FEEDBACK

Daily
Averages
Monthly
Summary
Canada

QUEBEC CITY, QUEBEC


Home > North America > Canada > Quebec
Elevation: 72 meters     Latitude: 46 48N     Longitude: 071 23W

WEATHER
 
SELECT A DAY
Number of Records: 192,519;   Date Range: 6/30/96 - 8/26/14
 
SHARE

PRINT THIS DATA

[ ← Previous Day ]
WEATHER ALMANAC - 24 APRIL, 2013
[ Next Day → ]
[ °F ]   °C
Weather ElementAverageHighLow
Temperature10.7 °C18 °C (5:00 pm)6 °C (6:00 am)
Dewpoint4.1 °C8 °C (5:00 pm) (7:00 pm)
Humidity65.7 %82 % (11:00 pm)41 % (5:00 pm)
Barometer979.7 hPa1022 hPa (1:00 am) (7:00 pm)
Wind Speed15 km/h24.1 km/h (5:00 pm)
Wind Gust33.3 km/h (6:00 pm)
Weather ElementAverage
Visibility38.8 km
Wind DirectionENE (80.3 °)

Weather ElementTotal
Precipitation---
Heating Degree Days6.3 (Base 18.3)
Growing Degree Days2 (Base 10)
Averaged from 31 records on 24 April, 2013
WEATHER CONDITIONS BREAKOUT
WIND DIRECTION BREAKOUT
WEATHER BY HOUR - 24 APRIL, 2013
[ °F ]   °C
Local TimeTemperatureDewpointHumidityBarometerVisibilityWind DirectionWind SpeedGust SpeedPrecipitationEventsConditions
1:00 AM7 °C1 °C66 %1022 hPa24.1 kmSE (140°)16.7 km/h27.8 km/hMostly Cloudy
2:00 AM7.2 °C2.8 °C65 %1020.3 hPaSE (130°)11.1 km/h
2:00 AM7 °C2 °C71 %1021.3 hPa24.1 kmESE (120°)14.8 km/hMostly Cloudy
3:00 AM7 °C3 °C76 %1020.7 hPa24.1 kmEast (100°)7.4 km/hOvercast
4:00 AM7 °C3 °C76 %1020.3 hPa24.1 kmEast (100°)18.5 km/hOvercast
5:00 AM6.7 °C3.3 °C73 %1018.6 hPaENE (70°)5.6 km/h
5:00 AM7 °C3 °C76 %1019.6 hPa24.1 kmENE (70°)9.3 km/hOvercast
6:00 AM6 °C3 °C81 %1019 hPa48.3 kmENE (60°)11.1 km/hPartly Cloudy
7:00 AM7 °C3 °C76 %1018.6 hPa48.3 kmENE (70°)11.1 km/hPartly Cloudy
8:00 AM7.8 °C3.9 °C68 %1016.9 hPaEast (80°)11.1 km/h
8:00 AM8 °C4 °C76 %1018.3 hPa48.3 kmENE (60°)14.8 km/hScattered Clouds
9:00 AM9 °C4 °C71 %1017.3 hPa48.3 kmENE (60°)16.7 km/hScattered Clouds
10:00 AM10 °C5 °C71 %1016.3 hPa48.3 kmENE (70°)11.1 km/hMostly Cloudy
11:00 AM12.2 °C5.6 °C53 %1013.9 hPaEast (80°)14.8 km/h
11:00 AM12 °C5 °C62 %1014.9 hPa48.3 kmEast (90°)14.8 km/h31.5 km/hPartly Cloudy
12:00 PM13 °C5 °C58 %1013.5 hPa48.3 kmENE (70°)14.8 km/hMostly Cloudy
1:00 PM14 °C6 °C59 %1011.9 hPa48.3 kmNE (50°)20.4 km/hMostly Cloudy
2:00 PM15.6 °C6.7 °C45 %1009.1 hPaEast (80°)13 km/h
2:00 PM15 °C6 °C55 %1010.2 hPa48.3 kmENE (60°)20.4 km/hMostly Cloudy
3:00 PM17 °C7 °C52 %1008.1 hPa48.3 kmENE (70°)18.5 km/hMostly Cloudy
4:00 PM17 °C7 °C52 %1007.1 hPa48.3 kmENE (70°)14.8 km/hScattered Clouds
5:00 PM17.8 °C7.8 °C41 %1004.4 hPaEast (80°)16.7 km/h
5:00 PM18 °C8 °C52 %1005.8 hPa48.3 kmEast (80°)24.1 km/hScattered Clouds
6:00 PM14 °C6 °C59 %1005.8 hPa48.3 kmENE (70°)24.1 km/h33.3 km/hScattered Clouds
7:00 PM12 °C5 °C62 %1004.4 hPa48.3 kmEast (80°)20.4 km/h33.3 km/hMostly Cloudy
8:00 PM9.4 °C5.6 °C68 %1002.7 hPaEast (80°)16.7 km/h
8:00 PM10 °C5 °C71 %1003.7 hPa24.1 kmEast (80°)18.5 km/hOvercast
9:00 PM9 °C5 °C76 %1003.7 hPa24.1 kmENE (70°)18.5 km/hOvercast
9:23 PM9 °C-17.8 °C24.1 kmENE (70°)9.3 km/hRainLight Rain Showers
11:00 PM9.4 °C6.7 °C77 %1000.7 hPaESE (110°)7.4 km/h
11:00 PM9 °C6 °C82 %1002 hPa24.1 kmENE (70°)16.7 km/hRainLight Rain Showers
Hourly data recorded from CYQB, located 0 kilometers away from Quebec City, Quebec







STORIES FROM OUR PARTNERS